Regional Weather Roundup
Issued by NWS

Home | Current Version | Previous Version | Graphics & Text | Print | Product List | Glossary On
Versions: 1 2 3 4 5 6 7 8 9 10 11 12 13 14 15 16 17 18 19 20 21 22 23 24 25 26 27 28 29 30 31 32 33 34 35 36 37 38 39 40 41 42 43 44 45 46 47 48 49 50
000
ASUS43 KFSD 041910
RWRSD

WEATHER ROUNDUP FOR SOUTH DAKOTA
NATIONAL WEATHER SERVICE SIOUX FALLS SD
200 PM CDT TUE AUG 04 2015

NOTE: "FAIR" INDICATES FEW OR NO CLOUDS BELOW 12,000 FEET WITH NO
SIGNIFICANT WEATHER AND/OR OBSTRUCTIONS TO VISIBILITY.


SDZ001>005-009-010-012>017-042000-
NORTHWEST AND NORTH CENTRAL SOUTH DAKOTA

CITY           SKY/WX    TMP DP  RH WIND       PRES   REMARKS
BUFFALO          N/A     85  55  35 SE21G29   29.89S
FAITH            N/A     84  54  35 SE17G24   29.95S
MOBRIDGE       MOSUNNY   83  64  52 S10       29.94S
$$

SDZ012>016-024>037-041>051-057-063-072>074-042000-
SOUTHWEST AND SOUTH CENTRAL SOUTH DAKOTA

CITY           SKY/WX    TMP DP  RH WIND       PRES   REMARKS
RAPID CTY ARPT PTSUNNY   81  62  52 S16G25    29.95F
PIERRE         CLOUDY    80  59  48 E13       29.94S
CUSTER         MOSUNNY   72  58  61 VRB6      30.08S
ELLSWORTH AFB  PTSUNNY   78  63  58 S14       29.94F
PHILIP         PTSUNNY   80  62  54 SE13      29.94S
PINE RIDGE     PTSUNNY   80  60  50 S13G21    29.98R
WINNER         FAIR      81  63  54 E13       29.96S
$$

SDZ004>011-016>023-039-040-042000-
NORTHEAST SOUTH DAKOTA

CITY           SKY/WX    TMP DP  RH WIND       PRES   REMARKS
ABERDEEN       SUNNY     82  56  40 E10       29.98S
WATERTOWN      MOSUNNY   79  53  40 CALM      30.00S
BROOKINGS      PTSUNNY   75  59  57 SE8       30.02S
SISSETON         N/A     80  54  40 VRB7      29.98S
$$

SDZ017-020-022-023-036>040-048>070-042000-
SOUTHEAST SOUTH DAKOTA

CITY           SKY/WX    TMP DP  RH WIND       PRES   REMARKS
SIOUX FALLS    CLOUDY    75  61  61 E9        30.00R
HURON          CLOUDY    80  63  55 SE9       29.96S
CHAMBERLAIN    PTSUNNY   77  62  60 SE10      29.96S
MITCHELL       CLOUDY    78  65  63 SE9       29.97S
YANKTON        PTSUNNY   75  63  64 E7        29.95S
$$

ABBREVIATIONS USED IN REMARKS
   TC - TEMPERATURE IN CELSIUS
  WCI - WIND CHILL INDEX
   HX - HEAT INDEX
  VSB - VISIBILITY




USA.gov is the U.S. government's official web portal to all federal, state and local government web resources and services.